Вернуться в каталог

CZ-6A DEB

АктивенPO
NORAD 54575·DEBRIS·🇨🇳 China

Запущен Nov 11, 2022 с Taiyuan Satellite Launch Center

Loading…

Ближайшие Пролёты (ближайшие 24 часа)

TLE

СвежийSource: Space-Track

Эпоха: Sep 14, 2026, 04:25 UTC

1 54575U 22151MB  26257.18406368  .00003225  00000-0  52303-3 0  9993
2 54575  98.6203 336.8000 0118327 351.1267   8.7843 14.67406751203098

Отслеживайте CZ-6A DEB в реальном времени с AllMySat

Download on the App Store